CW9040 Weather Reports


Display with metric or nautical units.
time (UTC)temp
F
wind
direction
speed
MPH
gust
MPH
rain 1hr
in
rain 24hr
in
rain mn
in
humidity
%
barometer
mb
20190216000026 71 124 8.0 17.0 0.00 0.00 0.00 33 1007.8
20190215213018 71 212 0.0 3.0 0.00 0.00 0.00 34 1008.2
20190215210023 70 216 0.0 6.0 0.00 0.00 0.00 34 1007.9
20190215200022 72 170 3.0 12.0 0.00 0.00 0.00 33 1007.3
20190215190027 74 175 1.0 9.0 0.00 0.00 0.00 30 1006.5
20190215180024 78 190 5.0 13.0 0.00 0.00 0.00 26 1005.8
20190215170023 82 201 9.0 18.0 0.00 0.00 0.00 23 1005.0
20190215153018 87 221 3.0 14.0 0.00 0.00 0.00 21 1003.9
20190215150029 88 225 5.0 14.0 0.00 0.00 0.00 19 1003.7
20190215143018 89 237 6.0 14.0 0.00 0.00 0.00 19 1003.9
20190215133018 88 312 0.0 14.0 0.00 0.00 0.00 19 1004.2
20190215123017 91 318 4.0 16.0 0.00 0.00 0.00 19 1004.7
20190215120022 89 304 3.0 14.0 0.00 0.00 0.00 21 1005.3
20190215113016 89 309 3.0 16.0 0.00 0.00 0.00 23 1005.6
20190215110025 87 261 1.0 12.0 0.00 0.00 0.00 26 1006.0
20190215103017 85 99 2.0 9.0 0.00 0.00 0.00 28 1006.2
20190215100025 84 271 3.0 12.0 0.00 0.00 0.00 30 1006.8
20190215090023 83 281 1.0 9.0 0.00 0.00 0.00 36 1007.4
20190215083017 79 290 2.0 8.0 0.00 0.00 0.00 42 1007.5
20190215080023 77 319 1.0 7.0 0.00 0.00 0.00 45 1007.6
20190215073016 75 312 1.0 7.0 0.00 0.00 0.00 47 1007.6
20190215070023 75 324 1.0 6.0 0.00 0.00 0.00 45 1007.6
20190215060022 69 314 0.0 0.0 0.00 0.00 0.00 50 1007.1
20190215053016 65 314 0.0 0.0 0.00 0.00 0.00 55 1007.0
20190215050022 62 313 0.0 0.0 0.00 0.00 0.00 58 1006.5
20190215043016 63 313 0.0 0.0 0.00 0.00 0.00 56 1006.2
20190215040022 63 314 0.0 0.0 0.00 0.00 0.00 55 1006.0
20190215033017 64 314 0.0 2.0 0.00 0.00 0.00 53 1005.9
20190215030029 65 292 0.0 0.0 0.00 0.00 0.00 52 1005.6
20190215020032 66 291 0.0 0.0 0.00 0.00 0.00 51 1005.3
20190215013017 68 291 0.0 0.0 0.00 0.00 0.00 51 1005.5
20190215010022 69 170 0.0 8.0 0.00 0.00 0.00 58 1005.4
20190215003016 70 154 0.0 7.0 0.00 0.00 0.00 58 1005.8